Location: Newark
(63.8600°N, 149.4141°W)
Time: 11:49:33
(UTC+00:00)

ISS - Visible Passes

Search period start: 20 September 2020 00:00
Search period end: 30 September 2020 00:00
Orbit: 419 x 420 km, 51.6° (Epoch: 20 September)

Date Brightness Start Highest point End Pass type
(mag) Time Alt. Az. Time Alt. Az. Time Alt. Az.
24 Sep -1.3 05:50:14 10° S 05:51:05 11° S 05:51:08 11° S visible
25 Sep -1.2 05:03:37 10° S 05:03:56 10° S 05:04:14 10° SSE visible
26 Sep -1.3 05:51:35 10° SSW 05:52:27 11° S 05:52:47 11° S visible
27 Sep -1.3 05:04:18 10° SSW 05:05:17 11° S 05:06:15 10° SSE visible
29 Sep -1.1 05:06:10 10° SSW 05:06:35 10° S 05:06:59 10° S visible
